Regional Weather Roundup
Issued by NWS

Home | Current Version | Previous Version | Graphics & Text | Print | Product List | Glossary On
Versions: 1 2 3 4 5 6 7 8 9 10 11 12 13 14 15 16 17 18 19 20 21 22 23 24 25 26 27 28
000
ASUS45 KCYS 230510
RWRWY

WYOMING REGIONAL WEATHER ROUNDUP
NATIONAL WEATHER SERVICE CHEYENNE WY
1100 PM MDT MON AUG 22 2016

NOTE:  "FAIR" INDICATES FEW OR NO CLOUDS BELOW 12,000 FEET
WITH NO SIGNIFICANT WEATHER AND/OR OBSTRUCTIONS TO VISIBILITY.

WYZ001-230600-
YELLOWSTONE NATIONAL PARK

CITY           SKY/WX    TMP DP  RH WIND       PRES   REMARKS
LK YELLOWSTONE   N/A     56  12  17 VRB3      30.13S
W YELLOWSTONE  NOT AVBL

$$
WYZ002>013-054>058-071-098>099-230600-
NORTHERN WYOMING

CITY           SKY/WX    TMP DP  RH WIND       PRES   REMARKS
JACKSON        FAIR      59  12  15 CALM      30.07R
CODY           FAIR      75  18  11 N8G21     29.88R
GREYBULL       FAIR      75  19  12 W12       29.77R
WORLAND        FAIR      74  18  12 VRB3      29.80R
SHERIDAN       FAIR      65  43  44 W3        29.77R
BUFFALO        FAIR      73  28  18 W10       29.82R
GILLETTE       FAIR      62  41  46 S6        29.76F
HULETT         FAIR      72  37  28 S8        29.78S
NEWCASTLE      FAIR      68  27  21 SE6G21    29.79R

$$
WYZ014>020-022>026-101>103-230600-
CENTRAL WYOMING

CITY           SKY/WX    TMP DP  RH WIND       PRES   REMARKS
BIG PINEY      FAIR      50  14  23 NW10      30.14R
PINEDALE       FAIR      45  21  39 NW3       30.15R
DUBOIS         FAIR      54   9  16 NW7       30.09S
LANDER         FAIR      76  11   8 W15G21    29.93S
RIVERTON       FAIR      71  14  11 W15       29.94R
CASPER         FAIR      70  29  21 SW15      29.91R
DOUGLAS        FAIR      78  34  20 SW18G28   29.87F

$$
WYZ021-027>030-104>119-230600-
SOUTHERN WYOMING

CITY           SKY/WX    TMP DP  RH WIND       PRES   REMARKS
EVANSTON       NOT AVBL
FORT BRIDGER   FAIR      63  21  20 W9        30.19R
ROCK SPRINGS   FAIR      66  18  15 W15       30.10R
DIXON          FAIR      56  34  43 CALM      30.15R
RAWLINS        FAIR      66  33  29 SW9G22    30.08R
SARATOGA       FAIR      59  37  44 SE9G16    30.13S
LARAMIE        FAIR      52  39  61 SE8       30.12F
CHEYENNE       FAIR      65  37  35 W15       30.01F
TORRINGTON     FAIR      68  41  37 CALM      29.84S
PINE BLUFFS    FAIR      57  41  54 SW3       29.96S

$$




USA.gov is the U.S. government's official web portal to all federal, state and local government web resources and services.